Regional Weather Roundup
Issued by NWS Memphis, TN

Home | Current Version | Previous Version | Text Only | Print | Product List | Glossary On
Versions: 1 2 3 4 5 6 7 8 9 10 11 12 13 14 15 16 17 18 19 20 21 22 23 24 25 26 27 28 29 30 31 32 33 34 35 36 37 38 39 40 41 42 43 44 45 46 47 48 49 50
000
ASUS44 KMEG 050810
RWRMEG
MEMPHIS CWA HOURLY WEATHER ROUNDUP
NATIONAL WEATHER SERVICE MEMPHIS TN
300 AM CDT THU MAY 05 2016

...WEST TENNESSEE...

CITY           SKY/WX    TMP DP  RH WIND       PRES   REMARKS
MEMPHIS INTL   CLEAR     56  43  61 N5        29.90F
NWS MEMPHIS      N/A     51 N/A N/A MISG        N/A
JACKSON        CLEAR     46  42  86 SW3       29.87F
LEXINGTON      CLEAR     43  43 100 CALM      29.84F
DYERSBURG      CLEAR     48  43  81 CALM      29.87F
UNION CITY     PTCLDY    46  45  93 CALM      29.85F


...EASTERN ARKANSAS...

CITY           SKY/WX    TMP DP  RH WIND       PRES   REMARKS
JONESBORO      CLEAR     54  39  57 NW6       29.92S
WEST MEMPHIS   CLEAR     52  48  86 CALM      29.90F
BATESVILLE     CLEAR     52  39  62 W5        29.95S
NEWPORT        CLEAR     52  42  68 NW8       29.94F
WALNUT RIDGE   CLEAR     52  37  58 W7        29.92F
BLYTHEVILLE    CLEAR     51  46  83 W6        29.89F
SEARCY         CLEAR     55  41  58 NW6       29.95S
STUTTGART      CLEAR     55  43  62 NW8       29.94R
PINE BLUFF     CLEAR     57  43  59 NW5       29.94S
MONTICELLO     CLEAR     59  44  57 CALM      29.92S


...NORTH MISSISSIPPI...

CITY           SKY/WX    TMP DP  RH WIND       PRES   REMARKS
TUPELO         CLEAR     53  44  71 NW5       29.88S
OXFORD         CLEAR     46  45  93 CALM      29.92S
BATESVILLE     FAIR      52  48  89 CALM      29.91S
OLIVE BRANCH   CLEAR     54  46  76 CALM      29.90F
TUNICA         CLEAR     50  46  87 N7        29.92S
CORINTH        CLEAR     48  45  87 CALM      29.87S
GREENWOOD      CLEAR     53  49  86 CALM      29.89R
COLUMBUS       CLEAR     53  49  86 N7        29.86S
STARKVILLE     FAIR      54  52  94 CALM      29.87R
GOLDEN TRIANGL   N/A    N/A N/A N/A MISG        N/A


...SOUTHEAST MISSOURI...

CITY           SKY/WX    TMP DP  RH WIND       PRES   REMARKS
KENNETT        FAIR      50  45  81 W6        29.88F
WEST PLAINS    CLEAR     46  35  65 W6        29.95F
POPLAR BLUFF   CLEAR     49  39  68 W5        29.88F
CAPE GIRARDEAU CLEAR     45  40  82 W7        29.86F


...NORTHWEST ALABAMA...

CITY           SKY/WX    TMP DP  RH WIND       PRES   REMARKS
MUSCLE SHOALS  CLEAR     50  44  80 NW3       29.86F


...MIDDLE TENNESSEE...

CITY           SKY/WX    TMP DP  RH WIND       PRES   REMARKS
NASHVILLE      MOCLDY    48  40  73 CALM      29.82F
CLARKSVILLE    PTCLDY    44  41  89 W5        29.82F
COLUMBIA       CLEAR    N/A N/A N/A CALM      29.82F


...WESTERN KENTUCKY...

CITY           SKY/WX    TMP DP  RH WIND       PRES   REMARKS
PADUCAH        PTCLDY    44  40  85 SW5       29.83F
FORT CAMPBELL  CLEAR     44  41  89 SW6       29.82F


...CENTRAL ARKANSAS...

CITY           SKY/WX    TMP DP  RH WIND       PRES   REMARKS
LITTLE ROCK    CLEAR     58  41  53 N6        29.94F


SKY/WX REPORTED AS FAIR MEANS FEW OR NO CLOUDS BELOW
12 THOUSAND FEET.





USA.gov is the U.S. government's official web portal to all federal, state and local government web resources and services.